FALCON 9 R/B (48839 NORAD) Tracking and Keplerian Element Data

This shows tracking and keplerian element data for the satellite.

Feedback or suggestion? Click here.




ElementValue
Catalog48839
NameFALCON 9 R/B
Epoch Orbit124
Epoch Day186.63783797
Epoch Year2021
RAAN130.2533
Inclination27.0273
Eccentricity0.5912517
Argument of Perigee214.215
Mean Anonmoly87.4697
Mean Motion4.22254561
Decay Rate4.176E-05
L11 48839U 21049B 21186.63783797 .00004176 00000-0 28089-3 0 9994
L22 48839 27.0273 130.2533 5912517 214.2150 87.4697 4.22254561 1246

Live tracking and technical data element details for FALCON 9 R/B (NORAD 48839). FALCON 9 R/B can be tracked NOW for your location showing map with azimuth and elevation plus other details from your city location.

Track the satellite on the map from your city or location and see movement details for azimuth, elevation, latitude, longitude, range, height, and movement on the map or in text.







IsCatalogInMostPopularTable: catalog: 48839, numindb: 13
Update: records affected: 1



GetName: 48839 FALCON 9 R/B

Hit Count: updated at: Wed, 04 Aug 2021 00:44:33 GMT